NULL Weather Reports


Display with metric or nautical units.
time (UTC)temp
F
wind
direction
speed
MPH
gust
MPH
rain 1hr
in
rain 24hr
in
rain mn
in
humidity
%
barometer
mb
20260905041522 79 171 0.0 2.0 0.00 0.00 0.00 84 1010.4
20260905041518 70 134 0.0 0.0 0.00 0.00 0.00 84 1012.0
20260905040029 79 171 0.0 0.0 0.00 0.00 0.00 83 1010.4
20260905040020 70 134 0.0 0.0 0.00 0.00 0.00 84 1011.9
20260905034528 80 171 0.0 0.0 0.00 0.00 0.00 83 1010.5
20260905034517 71 157 0.0 0.0 0.00 0.00 0.00 83 1011.8
20260905033021 80 171 0.0 0.0 0.00 0.00 0.00 83 1010.4
20260905033017 71 157 0.0 0.0 0.00 0.00 0.00 82 1011.7
20260905031522 81 171 0.0 0.0 0.00 0.00 0.00 81 1010.2
20260905031519 71 157 0.0 0.0 0.00 0.00 0.00 81 1011.5
20260905030022 72 158 0.0 0.0 0.00 0.00 0.00 80 1011.3
20260905030020 81 171 0.0 1.0 0.00 0.00 0.00 80 1010.1
20260905024528 72 144 0.0 0.0 0.00 0.00 0.00 78 1011.0
20260905024519 82 171 0.0 2.0 0.00 0.00 0.00 79 1010.0
20260905023019 83 192 0.0 2.0 0.00 0.00 0.00 78 1009.8
20260905023015 72 151 0.0 0.0 0.00 0.00 0.00 75 1011.0
20260905021518 83 192 0.0 1.0 0.00 0.00 0.00 75 1009.7
20260905021513 73 150 0.0 0.0 0.00 0.00 0.00 73 1011.1
20260905020022 73 147 0.0 0.0 0.00 0.00 0.00 71 1011.2
20260905020018 84 192 0.0 3.0 0.00 0.00 0.00 74 1009.6
20260905014520 85 189 0.0 0.0 0.00 0.00 0.00 70 1009.4
20260905014512 74 158 0.0 0.0 0.00 0.00 0.00 70 1011.2
20260905013017 86 189 0.0 1.0 0.00 0.00 0.00 68 1009.2
20260905013012 75 157 0.0 0.0 0.00 0.00 0.00 70 1011.2
20260905011516 88 189 0.0 1.0 0.00 0.00 0.00 65 1009.1
20260905011510 75 158 0.0 0.0 0.00 0.00 0.00 68 1011.3
20260905010020 90 189 0.0 0.0 0.00 0.00 0.00 61 1008.9
20260905010010 75 158 0.0 0.0 0.00 0.00 0.00 67 1011.4
20260905004518 91 189 0.0 0.0 0.00 0.00 0.00 58 1009.0
20260905004508 76 145 0.0 0.0 0.00 0.00 0.00 66 1011.3
20260905003021 93 189 0.0 3.0 0.00 0.00 0.00 54 1009.0
20260905003008 76 152 0.0 0.0 0.00 0.00 0.00 66 1011.4
20260905001514 94 195 0.0 4.0 0.00 0.00 0.00 51 1009.0
20260905001507 76 150 0.0 0.0 0.00 0.00 0.00 64 1011.6
20260905000025 95 171 2.0 5.0 0.00 0.00 0.00 49 1009.0
20260905000006 77 175 0.0 1.0 0.00 0.00 0.00 63 1011.4
20260904234508 77 196 0.0 0.0 0.00 0.00 0.00 64 1011.5
20260904234504 95 196 3.0 6.0 0.00 0.00 0.00 48 1009.1
20260904233105 96 206 3.0 8.0 0.00 0.00 0.00 47 1009.1
20260904233006 78 148 0.0 0.0 0.00 0.00 0.00 64 1011.5
20260904231549 96 143 4.0 9.0 0.00 0.00 0.00 46 1009.2
20260904231505 78 172 0.0 0.0 0.00 0.00 0.00 64 1011.5
20260904230041 96 176 6.0 11.0 0.00 0.00 0.00 46 1009.3
20260904230005 79 166 0.0 1.0 0.00 0.00 0.00 63 1011.5
20260904224540 96 164 7.0 14.0 0.00 0.00 0.00 46 1009.2
20260904224503 79 153 0.0 0.0 0.00 0.00 0.00 63 1011.5
20260904223124 96 224 3.0 12.0 0.00 0.00 0.00 47 1009.2
20260904223002 80 158 0.0 0.0 0.00 0.00 0.00 63 1011.7
20260904221520 96 122 6.0 11.0 0.00 0.00 0.00 46 1009.2
20260904221502 80 103 0.0 1.0 0.00 0.00 0.00 61 1011.5
20260904220013 96 202 4.0 10.0 0.00 0.00 0.00 45 1009.3
20260904220000 80 175 0.0 1.0 0.00 0.00 0.00 62 1011.6
20260904214616 81 173 0.0 0.0 0.00 0.00 0.00 62 1011.6
20260904214601 96 133 6.0 13.0 0.00 0.00 0.00 45 1009.3
20260904213059 81 169 0.0 0.0 0.00 0.00 0.00 62 1011.7
20260904213055 96 181 6.0 19.0 0.00 0.00 0.00 45 1009.3
20260904211606 81 149 0.0 1.0 0.00 0.00 0.00 62 1011.9
20260904210057 81 165 0.0 0.0 0.00 0.00 0.00 62 1011.9
20260904210048 96 134 7.0 13.0 0.00 0.00 0.00 46 1009.7
20260904204638 95 144 8.0 17.0 0.00 0.00 0.00 48 1009.8
20260904204555 81 217 0.0 0.0 0.00 0.00 0.00 61 1011.9
20260904203053 80 161 0.0 0.0 0.00 0.00 0.00 63 1012.0
20260904203043 95 211 3.0 14.0 0.00 0.00 0.00 47 1010.0
20260904201552 80 180 0.0 0.0 0.00 0.00 0.00 62 1012.0
20260904201521 95 197 4.0 11.0 0.00 0.00 0.00 47 1010.0
20260904200013 95 254 4.0 15.0 0.00 0.00 0.00 47 1010.2
20260904194555 80 155 0.0 0.0 0.00 0.00 0.00 62 1012.3
20260904194507 95 155 5.0 10.0 0.00 0.00 0.00 47 1010.2
20260904193052 80 253 0.0 0.0 0.00 0.00 0.00 62 1012.4
20260904193008 95 226 6.0 12.0 0.00 0.00 0.00 48 1010.4
20260904191559 94 212 9.0 16.0 0.00 0.00 0.00 47 1010.5
20260904191548 80 158 0.0 0.0 0.00 0.00 0.00 61 1012.5
20260904190055 93 189 8.0 18.0 0.00 0.00 0.00 48 1010.5
20260904190048 81 151 0.0 0.0 0.00 0.00 0.00 61 1012.7
20260904184555 93 184 5.0 13.0 0.00 0.00 0.00 50 1010.7
20260904184548 80 157 0.0 0.0 0.00 0.00 0.00 61 1013.1
20260904183053 92 178 5.0 20.0 0.00 0.00 0.00 50 1010.8
20260904183042 79 135 0.0 0.0 0.00 0.00 0.00 61 1013.2
20260904181545 78 206 0.0 0.0 0.00 0.00 0.00 61 1013.2
20260904181543 92 184 10.0 17.0 0.00 0.00 0.00 50 1010.7
20260904180050 92 207 7.0 15.0 0.00 0.00 0.00 52 1010.9
20260904180036 78 133 0.0 0.0 0.00 0.00 0.00 62 1013.4
20260904174539 91 203 7.0 25.0 0.00 0.00 0.00 53 1011.1
20260904174535 77 155 0.0 0.0 0.00 0.00 0.00 64 1013.6
20260904173041 91 185 9.0 18.0 0.00 0.00 0.00 54 1011.2
20260904173030 76 146 0.0 0.0 0.00 0.00 0.00 66 1013.5
20260904171535 90 189 11.0 18.0 0.00 0.00 0.00 54 1011.3
20260904171529 76 138 0.0 0.0 0.00 0.00 0.00 68 1013.5
20260904170041 89 205 7.0 15.0 0.00 0.00 0.00 57 1011.4
20260904170023 74 151 0.0 0.0 0.00 0.00 0.00 70 1013.2
20260904164528 89 145 7.0 17.0 0.00 0.00 0.00 58 1011.5
20260904164520 73 152 0.0 0.0 0.00 0.00 0.00 73 1013.1
20260904163027 88 210 8.0 16.0 0.00 0.00 0.00 59 1011.5
20260904163016 71 142 0.0 0.0 0.00 0.00 0.00 75 1012.9
20260904161528 88 205 9.0 15.0 0.00 0.00 0.00 60 1011.4
20260904161513 71 131 0.0 0.0 0.00 0.00 0.00 76 1012.9
20260904160022 87 176 7.0 18.0 0.00 0.00 0.00 62 1011.5
20260904160012 70 290 0.0 0.0 0.00 0.00 0.00 77 1012.9
20260904154524 86 168 8.0 19.0 0.00 0.00 0.00 64 1011.7
20260904154509 69 138 0.0 0.0 0.00 0.00 0.00 79 1012.9
20260904153017 85 221 8.0 15.0 0.00 0.00 0.00 65 1011.8
20260904153005 68 127 0.0 0.0 0.00 0.00 0.00 81 1012.8
20260904151516 85 140 5.0 12.0 0.00 0.00 0.00 67 1011.8
20260904151501 67 138 0.0 0.0 0.00 0.00 0.00 84 1012.6
20260904150017 84 211 10.0 16.0 0.00 0.00 0.00 68 1011.7
20260904150003 67 140 0.0 0.0 0.00 0.00 0.00 85 1012.6
20260904144600 66 104 0.0 0.0 0.00 0.00 0.00 87 1012.8
20260904144508 83 172 5.0 13.0 0.00 0.00 0.00 70 1011.7
20260904143059 65 150 0.0 0.0 0.00 0.00 0.00 88 1012.6
20260904143009 82 194 8.0 11.0 0.00 0.00 0.00 71 1011.7
20260904141558 64 150 0.0 0.0 0.00 0.00 0.00 89 1012.4
20260904141503 82 218 5.0 10.0 0.00 0.00 0.00 72 1011.7
20260904140056 64 149 0.0 0.0 0.00 0.00 0.00 89 1012.1
20260904134557 79 162 2.0 6.0 0.00 0.00 0.00 77 1011.9
20260904134554 64 149 0.0 0.0 0.00 0.00 0.00 89 1012.1
20260904133054 64 149 0.0 0.0 0.00 0.00 0.00 89 1012.1
20260904131614 64 149 0.0 0.0 0.00 0.00 0.00 89 1012.0
20260904131551 77 133 1.0 3.0 0.00 0.00 0.00 81 1011.7
20260904130053 64 148 0.0 0.0 0.00 0.00 0.00 89 1012.0
20260904130050 76 187 0.0 2.0 0.00 0.00 0.00 85 1011.7
20260904124552 64 148 0.0 0.0 0.00 0.00 0.00 89 1012.1
20260904123050 64 148 0.0 0.0 0.00 0.00 0.00 89 1012.0
20260904123047 73 195 0.0 0.0 0.00 0.00 0.00 85 1011.3
20260904121549 64 148 0.0 0.0 0.00 0.00 0.00 89 1011.8
20260904121546 73 359 0.0 1.0 0.00 0.00 0.00 85 1011.1
20260904120052 64 148 0.0 0.0 0.00 0.00 0.00 88 1011.6
20260904114549 65 148 0.0 0.0 0.00 0.00 0.00 88 1011.8
20260904114545 73 359 0.0 1.0 0.00 0.00 0.00 85 1010.8
20260904113045 65 148 0.0 0.0 0.00 0.00 0.00 89 1011.6
20260904113041 73 359 0.0 2.0 0.00 0.00 0.00 85 1010.6
20260904111545 65 148 0.0 0.0 0.00 0.00 0.00 89 1011.6
20260904111539 73 359 0.0 2.0 0.00 0.00 0.00 85 1010.4
20260904110043 65 148 0.0 0.0 0.00 0.00 0.00 88 1011.5
20260904104545 65 148 0.0 0.0 0.00 0.00 0.00 88 1011.6
20260904104538 73 359 0.0 0.0 0.00 0.00 0.00 85 1010.3
20260904103050 65 148 0.0 0.0 0.00 0.00 0.00 88 1011.6
20260904103039 73 359 0.0 0.0 0.00 0.00 0.00 85 1010.3
20260904101539 65 148 0.0 0.0 0.00 0.00 0.00 88 1011.5
20260904101535 73 359 0.0 1.0 0.00 0.00 0.00 85 1010.0
20260904100038 66 148 0.0 0.0 0.00 0.00 0.00 87 1011.5
20260904094541 73 359 0.0 1.0 0.00 0.00 0.00 84 1009.9
20260904093037 66 148 0.0 0.0 0.00 0.00 0.00 87 1011.6
20260904093031 74 359 0.0 0.0 0.00 0.00 0.00 85 1009.8
20260904091535 74 359 0.0 0.0 0.00 0.00 0.00 85 1009.7
20260904090034 66 149 0.0 0.0 0.00 0.00 0.00 88 1011.5
20260904090027 74 359 0.0 0.0 0.00 0.00 0.00 84 1009.4
20260904084534 66 152 0.0 0.0 0.00 0.00 0.00 88 1011.6
20260904084526 74 359 0.0 0.0 0.00 0.00 0.00 84 1009.3
20260904083047 66 153 0.0 0.0 0.00 0.00 0.00 88 1011.7
20260904083024 74 359 0.0 0.0 0.00 0.00 0.00 83 1009.3
20260904081531 66 153 0.0 0.0 0.00 0.00 0.00 88 1011.8
20260904081522 75 359 0.0 0.0 0.00 0.00 0.00 82 1009.3
20260904080031 66 153 0.0 0.0 0.00 0.00 0.00 87 1011.8
20260904080021 75 359 0.0 0.0 0.00 0.00 0.00 81 1009.2
20260904074545 66 153 0.0 0.0 0.00 0.00 0.00 87 1011.8
20260904074518 76 359 0.0 0.0 0.00 0.00 0.00 80 1009.3
20260904073034 67 153 0.0 0.0 0.00 0.00 0.00 87 1011.8
20260904073017 76 359 0.0 0.0 0.00 0.00 0.00 79 1009.3
20260904071527 67 153 0.0 0.0 0.00 0.00 0.00 87 1011.8
20260904071516 77 359 0.0 0.0 0.00 0.00 0.00 79 1009.3
20260904070024 67 153 0.0 0.0 0.00 0.00 0.00 86 1011.8
20260904070016 77 197 0.0 1.0 0.00 0.00 0.00 78 1009.3
20260904064530 67 153 0.0 0.0 0.00 0.00 0.00 86 1011.7
20260904064521 77 199 1.0 3.0 0.00 0.00 0.00 77 1009.5
20260904063023 77 359 1.0 3.0 0.00 0.00 0.00 79 1009.4
20260904061530 67 153 0.0 0.0 0.00 0.00 0.00 86 1011.6
20260904061511 77 197 0.0 0.0 0.00 0.00 0.00 79 1009.5
20260904060026 68 153 0.0 0.0 0.00 0.00 0.00 86 1011.6
20260904060010 77 359 0.0 0.0 0.00 0.00 0.00 79 1009.4
20260904054522 68 153 0.0 0.0 0.00 0.00 0.00 85 1011.6
20260904054510 77 195 0.0 0.0 0.00 0.00 0.00 79 1009.4
20260904053021 68 153 0.0 0.0 0.00 0.00 0.00 84 1011.6
20260904053008 78 189 0.0 0.0 0.00 0.00 0.00 79 1009.4
20260904051521 68 153 0.0 0.0 0.00 0.00 0.00 84 1011.7
20260904051504 78 189 0.0 0.0 0.00 0.00 0.00 78 1009.2
20260904050020 68 153 0.0 0.0 0.00 0.00 0.00 83 1011.6
20260904050002 78 188 0.0 0.0 0.00 0.00 0.00 78 1009.2
20260904044520 68 153 0.0 0.0 0.00 0.00 0.00 83 1011.4
20260904044506 79 189 0.0 0.0 0.00 0.00 0.00 77 1009.2
20260904043019 69 153 0.0 0.0 0.00 0.00 0.00 83 1011.3
20260904043004 79 189 0.0 0.0 0.00 0.00 0.00 77 1009.1